| time (UTC) | temp C | wind direction | speed KPH | gust KPH | rain 1hr cm | rain 24hr cm | rain mn cm | humidity % | barometer mb |
| 20260505213759 | 23 | 350 | 1.6 | 3.2 | 0.00 | 0.00 | 0.00 | 63 | 1012.5 |
| 20260505212246 | 23 | 355 | 1.6 | 3.2 | 0.00 | 0.00 | 0.00 | 61 | 1012.4 |
| 20260505211744 | 24 | 355 | 1.6 | 3.2 | 0.00 | 0.00 | 0.00 | 61 | 1012.6 |
| 20260505211242 | 24 | 351 | 1.6 | 3.2 | 0.00 | 0.00 | 0.00 | 61 | 1012.7 |
| 20260505210244 | 24 | 0 | 1.6 | 4.8 | 0.00 | 0.00 | 0.00 | 60 | 1012.6 |
| 20260505205238 | 25 | 350 | 1.6 | 4.8 | 0.00 | 0.00 | 0.00 | 59 | 1012.4 |
| 20260505204739 | 25 | 355 | 1.6 | 4.8 | 0.00 | 0.00 | 0.00 | 60 | 1012.3 |
| 20260505204238 | 25 | 355 | 1.6 | 3.2 | 0.00 | 0.00 | 0.00 | 60 | 1012.3 |
| 20260505203745 | 25 | 351 | 0.0 | 3.2 | 0.00 | 0.00 | 0.00 | 61 | 1012.4 |
| 20260505203235 | 25 | 355 | 1.6 | 3.2 | 0.00 | 0.00 | 0.00 | 60 | 1012.4 |
| 20260505202739 | 25 | 355 | 1.6 | 3.2 | 0.00 | 0.00 | 0.00 | 60 | 1012.5 |
| 20260505202236 | 25 | 355 | 1.6 | 3.2 | 0.00 | 0.00 | 0.00 | 58 | 1012.5 |
| 20260505201742 | 25 | 355 | 1.6 | 3.2 | 0.00 | 0.00 | 0.00 | 58 | 1012.7 |
| 20260505201230 | 26 | 355 | 1.6 | 3.2 | 0.00 | 0.00 | 0.00 | 58 | 1012.7 |
| 20260505200730 | 26 | 351 | 1.6 | 3.2 | 0.00 | 0.00 | 0.00 | 57 | 1012.7 |
| 20260505200231 | 26 | 351 | 1.6 | 3.2 | 0.00 | 0.00 | 0.00 | 57 | 1012.8 |
| 20260505195732 | 26 | 355 | 1.6 | 4.8 | 0.00 | 0.00 | 0.00 | 57 | 1012.7 |
| 20260505195229 | 26 | 350 | 1.6 | 4.8 | 0.00 | 0.00 | 0.00 | 57 | 1012.8 |
| 20260505194216 | 26 | 39 | 1.6 | 4.8 | 0.00 | 0.00 | 0.00 | 56 | 1012.7 |
| 20260505193718 | 26 | 72 | 1.6 | 4.8 | 0.00 | 0.00 | 0.00 | 56 | 1012.8 |
| 20260505192712 | 28 | 0 | 1.6 | 6.4 | 0.00 | 0.00 | 0.00 | 49 | 1012.9 |
| 20260505192211 | 28 | 344 | 1.6 | 6.4 | 0.00 | 0.00 | 0.00 | 40 | 1012.9 |
| 20260505191205 | 28 | 314 | 1.6 | 3.2 | 0.00 | 0.00 | 0.00 | 41 | 1012.9 |
| 20260505190702 | 28 | 266 | 1.6 | 3.2 | 0.00 | 0.00 | 0.00 | 42 | 1013.0 |
| 20260505190203 | 28 | 305 | 1.6 | 4.8 | 0.00 | 0.00 | 0.00 | 40 | 1012.9 |
| 20260505185702 | 28 | 213 | 1.6 | 4.8 | 0.00 | 0.00 | 0.00 | 39 | 1013.0 |
| 20260505183709 | 27 | 111 | 1.6 | 6.4 | 0.00 | 0.00 | 0.00 | 48 | 1012.9 |
| 20260505183204 | 27 | 150 | 1.6 | 4.8 | 0.00 | 0.00 | 0.00 | 46 | 1013.0 |
| 20260505182728 | 27 | 331 | 0.0 | 3.2 | 0.00 | 0.00 | 0.00 | 47 | 1013.1 |
| 20260505182203 | 27 | 297 | 1.6 | 6.4 | 0.00 | 0.00 | 0.00 | 51 | 1013.0 |
| 20260505181209 | 27 | 166 | 1.6 | 6.4 | 0.00 | 0.00 | 0.00 | 49 | 1013.2 |
| 20260505180711 | 27 | 74 | 1.6 | 6.4 | 0.00 | 0.00 | 0.00 | 48 | 1013.2 |
| 20260505180206 | 27 | 252 | 0.0 | 4.8 | 0.00 | 0.00 | 0.00 | 51 | 1013.2 |
| 20260505175657 | 27 | 109 | 0.0 | 4.8 | 0.00 | 0.00 | 0.00 | 49 | 1013.3 |
| 20260505175150 | 27 | 198 | 1.6 | 9.7 | 0.00 | 0.00 | 0.00 | 52 | 1013.4 |
| 20260505174648 | 27 | 333 | 1.6 | 9.7 | 0.00 | 0.00 | 0.00 | 48 | 1013.4 |
| 20260505173636 | 27 | 127 | 1.6 | 9.7 | 0.00 | 0.00 | 0.00 | 49 | 1013.3 |
| 20260505173138 | 27 | 123 | 1.6 | 6.4 | 0.00 | 0.00 | 0.00 | 49 | 1013.4 |
| 20260505172640 | 26 | 119 | 1.6 | 6.4 | 0.00 | 0.00 | 0.00 | 49 | 1013.4 |
| 20260505172138 | 26 | 133 | 1.6 | 8.0 | 0.00 | 0.00 | 0.00 | 49 | 1013.4 |
| 20260505171137 | 26 | 185 | 1.6 | 6.4 | 0.00 | 0.00 | 0.00 | 48 | 1013.4 |
| 20260505170135 | 26 | 105 | 1.6 | 4.8 | 0.00 | 0.00 | 0.00 | 49 | 1013.4 |
| 20260505165634 | 26 | 225 | 0.0 | 4.8 | 0.00 | 0.00 | 0.00 | 51 | 1013.5 |
| 20260505165143 | 26 | 148 | 0.0 | 4.8 | 0.00 | 0.00 | 0.00 | 52 | 1013.6 |
| 20260505164135 | 26 | 153 | 0.0 | 6.4 | 0.00 | 0.00 | 0.00 | 49 | 1013.5 |
| 20260505163636 | 26 | 130 | 1.6 | 6.4 | 0.00 | 0.00 | 0.00 | 51 | 1013.5 |
| 20260505162633 | 25 | 180 | 0.0 | 4.8 | 0.00 | 0.00 | 0.00 | 51 | 1013.7 |
| 20260505162138 | 25 | 133 | 0.0 | 4.8 | 0.00 | 0.00 | 0.00 | 53 | 1013.8 |
| 20260505161633 | 25 | 146 | 0.0 | 4.8 | 0.00 | 0.00 | 0.00 | 53 | 1013.9 |
| 20260505161129 | 25 | 150 | 0.0 | 4.8 | 0.00 | 0.00 | 0.00 | 53 | 1013.8 |
| 20260505160631 | 25 | 181 | 1.6 | 3.2 | 0.00 | 0.00 | 0.00 | 53 | 1014.0 |
| 20260505160133 | 25 | 165 | 1.6 | 4.8 | 0.00 | 0.00 | 0.00 | 54 | 1014.0 |
| 20260505153144 | 24 | 219 | 0.0 | 6.4 | 0.00 | 0.00 | 0.00 | 57 | 1013.9 |
| 20260505151629 | 23 | 161 | 1.6 | 6.4 | 0.00 | 0.00 | 0.00 | 56 | 1014.0 |
| 20260505151128 | 23 | 99 | 1.6 | 6.4 | 0.00 | 0.00 | 0.00 | 56 | 1014.0 |
| 20260505150625 | 23 | 117 | 1.6 | 4.8 | 0.00 | 0.00 | 0.00 | 58 | 1014.1 |
| 20260505150124 | 23 | 182 | 1.6 | 4.8 | 0.00 | 0.00 | 0.00 | 58 | 1014.1 |
| 20260505140605 | 21 | 103 | 1.6 | 4.8 | 0.00 | 0.00 | 0.00 | 63 | 1014.3 |
| 20260505124604 | 16 | 117 | 0.0 | 4.8 | 0.00 | 0.00 | 0.00 | 85 | 1014.2 |
| 20260505124103 | 16 | 162 | 0.0 | 6.4 | 0.00 | 0.00 | 0.00 | 85 | 1014.1 |
| 20260505123101 | 16 | 163 | 1.6 | 6.4 | 0.00 | 0.00 | 0.00 | 84 | 1014.1 |
| 20260505122604 | 16 | 113 | 0.0 | 3.2 | 0.00 | 0.00 | 0.00 | 84 | 1014.1 |
| 20260505122104 | 17 | 90 | 0.0 | 6.4 | 0.00 | 0.00 | 0.00 | 82 | 1014.1 |
| 20260505120603 | 17 | 193 | 1.6 | 11.3 | 0.00 | 0.00 | 0.00 | 77 | 1014.1 |
| 20260505120100 | 17 | 43 | 0.0 | 11.3 | 0.00 | 0.00 | 0.00 | 77 | 1014.1 |
| 20260505115601 | 17 | 153 | 0.0 | 14.5 | 0.00 | 0.00 | 0.00 | 78 | 1014.1 |
| 20260505115104 | 17 | 151 | 0.0 | 14.5 | 0.00 | 0.00 | 0.00 | 77 | 1014.1 |
| 20260505114105 | 17 | 139 | 0.0 | 6.4 | 0.00 | 0.00 | 0.00 | 78 | 1014.1 |
| 20260505113605 | 16 | 155 | 0.0 | 6.4 | 0.00 | 0.00 | 0.00 | 78 | 1014.1 |
| 20260505113103 | 16 | 178 | 0.0 | 3.2 | 0.00 | 0.00 | 0.00 | 78 | 1014.1 |
| 20260505112555 | 16 | 144 | 0.0 | 4.8 | 0.00 | 0.00 | 0.00 | 79 | 1014.0 |
| 20260505112059 | 16 | 153 | 1.6 | 4.8 | 0.00 | 0.00 | 0.00 | 79 | 1014.0 |
| 20260505111547 | 16 | 153 | 0.0 | 6.4 | 0.00 | 0.00 | 0.00 | 79 | 1014.1 |
| 20260505111044 | 16 | 165 | 0.0 | 8.0 | 0.00 | 0.00 | 0.00 | 79 | 1014.0 |
| 20260505110538 | 16 | 162 | 0.0 | 8.0 | 0.00 | 0.00 | 0.00 | 79 | 1014.1 |
| 20260505101035 | 16 | 131 | 0.0 | 3.2 | 0.00 | 0.00 | 0.00 | 77 | 1013.6 |
| 20260505100533 | 16 | 123 | 0.0 | 6.4 | 0.00 | 0.00 | 0.00 | 77 | 1013.5 |
| 20260505095032 | 16 | 142 | 0.0 | 0.0 | 0.00 | 0.00 | 0.00 | 77 | 1013.3 |
| 20260505094533 | 16 | 142 | 0.0 | 0.0 | 0.00 | 0.00 | 0.00 | 78 | 1013.3 |
| 20260505093534 | 16 | 142 | 0.0 | 0.0 | 0.00 | 0.00 | 0.00 | 78 | 1013.2 |
| 20260505093029 | 16 | 142 | 0.0 | 0.0 | 0.00 | 0.00 | 0.00 | 79 | 1013.2 |
| 20260505092524 | 16 | 142 | 0.0 | 0.0 | 0.00 | 0.00 | 0.00 | 79 | 1013.1 |
| 20260505092032 | 16 | 142 | 0.0 | 0.0 | 0.00 | 0.00 | 0.00 | 79 | 1013.1 |
| 20260505091526 | 16 | 142 | 0.0 | 0.0 | 0.00 | 0.00 | 0.00 | 80 | 1013.1 |
| 20260505091028 | 16 | 142 | 0.0 | 0.0 | 0.00 | 0.00 | 0.00 | 80 | 1013.1 |
| 20260505090028 | 16 | 142 | 0.0 | 1.6 | 0.00 | 0.00 | 0.00 | 80 | 1013.0 |
| 20260505084527 | 16 | 146 | 0.0 | 4.8 | 0.00 | 0.00 | 0.00 | 81 | 1013.1 |
| 20260505084019 | 16 | 150 | 0.0 | 3.2 | 0.00 | 0.00 | 0.00 | 81 | 1013.1 |
| 20260505083524 | 16 | 172 | 0.0 | 3.2 | 0.00 | 0.00 | 0.00 | 83 | 1013.1 |
| 20260505083017 | 16 | 171 | 0.0 | 3.2 | 0.00 | 0.00 | 0.00 | 83 | 1013.1 |
| 20260505082518 | 16 | 143 | 0.0 | 3.2 | 0.00 | 0.00 | 0.00 | 83 | 1013.1 |
| 20260505081508 | 15 | 155 | 0.0 | 3.2 | 0.00 | 0.00 | 0.00 | 85 | 1013.1 |
| 20260505081011 | 15 | 155 | 0.0 | 3.2 | 0.00 | 0.00 | 0.00 | 86 | 1013.1 |
| 20260505080512 | 15 | 127 | 0.0 | 3.2 | 0.00 | 0.00 | 0.00 | 86 | 1013.1 |
| 20260505080010 | 15 | 141 | 0.0 | 3.2 | 0.00 | 0.00 | 0.00 | 87 | 1013.1 |
| 20260505075503 | 15 | 136 | 0.0 | 1.6 | 0.00 | 0.00 | 0.00 | 88 | 1013.1 |
| 20260505075001 | 15 | 140 | 0.0 | 3.2 | 0.00 | 0.00 | 0.00 | 88 | 1013.2 |
| 20260505074503 | 15 | 140 | 0.0 | 3.2 | 0.00 | 0.00 | 0.00 | 88 | 1013.1 |
| 20260505074003 | 15 | 190 | 0.0 | 6.4 | 0.00 | 0.00 | 0.00 | 89 | 1013.1 |
| 20260505073502 | 15 | 197 | 0.0 | 6.4 | 0.00 | 0.00 | 0.00 | 89 | 1013.2 |
| 20260505073004 | 15 | 205 | 0.0 | 3.2 | 0.00 | 0.00 | 0.00 | 89 | 1013.0 |
| 20260505072502 | 15 | 87 | 0.0 | 8.0 | 0.00 | 0.00 | 0.00 | 89 | 1013.0 |
| 20260505072003 | 15 | 99 | 0.0 | 8.0 | 0.00 | 0.00 | 0.00 | 90 | 1012.9 |
| 20260505071503 | 15 | 284 | 0.0 | 3.2 | 0.00 | 0.00 | 0.00 | 90 | 1012.9 |
| 20260505070509 | 15 | 153 | 0.0 | 4.8 | 0.00 | 0.00 | 0.00 | 90 | 1012.8 |
| 20260505070006 | 15 | 168 | 0.0 | 4.8 | 0.00 | 0.00 | 0.00 | 90 | 1012.9 |
| 20260505065003 | 15 | 129 | 0.0 | 4.8 | 0.00 | 0.00 | 0.00 | 90 | 1012.9 |
| 20260505064005 | 15 | 123 | 0.0 | 3.2 | 0.00 | 0.00 | 0.00 | 90 | 1012.9 |
| 20260505063502 | 15 | 146 | 0.0 | 1.6 | 0.00 | 0.00 | 0.00 | 90 | 1012.8 |
| 20260505063004 | 15 | 150 | 0.0 | 1.6 | 0.00 | 0.00 | 0.00 | 90 | 1012.8 |
| 20260505062502 | 15 | 144 | 0.0 | 3.2 | 0.00 | 0.00 | 0.00 | 90 | 1012.9 |
| 20260505061503 | 15 | 130 | 0.0 | 1.6 | 0.00 | 0.00 | 0.00 | 90 | 1012.8 |
| 20260505061006 | 15 | 131 | 0.0 | 1.6 | 0.00 | 0.00 | 0.00 | 89 | 1012.9 |
| 20260505060503 | 15 | 136 | 0.0 | 3.2 | 0.00 | 0.00 | 0.00 | 89 | 1012.9 |
| 20260505055505 | 15 | 159 | 0.0 | 3.2 | 0.00 | 0.00 | 0.00 | 87 | 1012.9 |
| 20260505055007 | 16 | 122 | 0.0 | 1.6 | 0.00 | 0.00 | 0.00 | 87 | 1012.9 |
| 20260505054505 | 16 | 124 | 0.0 | 4.8 | 0.00 | 0.00 | 0.00 | 86 | 1012.9 |
| 20260505054003 | 15 | 126 | 0.0 | 4.8 | 0.00 | 0.00 | 0.00 | 86 | 1012.9 |
| 20260505053506 | 16 | 120 | 0.0 | 4.8 | 0.00 | 0.00 | 0.00 | 86 | 1012.9 |
| 20260505053004 | 15 | 119 | 0.0 | 4.8 | 0.00 | 0.00 | 0.00 | 86 | 1013.0 |
| 20260505052501 | 15 | 222 | 0.0 | 4.8 | 0.00 | 0.00 | 0.00 | 87 | 1012.9 |
| 20260505051504 | 15 | 200 | 0.0 | 3.2 | 0.00 | 0.00 | 0.00 | 87 | 1012.9 |
| 20260505051004 | 15 | 182 | 1.6 | 3.2 | 0.00 | 0.00 | 0.00 | 87 | 1013.0 |
| 20260505050508 | 15 | 152 | 0.0 | 3.2 | 0.00 | 0.00 | 0.00 | 88 | 1013.1 |
| 20260505040945 | 16 | 131 | 0.0 | 6.4 | 0.00 | 0.00 | 0.00 | 83 | 1013.1 |
| 20260505040444 | 16 | 131 | 0.0 | 6.4 | 0.00 | 0.00 | 0.00 | 81 | 1013.2 |
| 20260505035445 | 16 | 181 | 0.0 | 4.8 | 0.00 | 0.00 | 0.00 | 82 | 1013.2 |
| 20260505034447 | 16 | 178 | 0.0 | 3.2 | 0.00 | 0.00 | 0.00 | 82 | 1013.1 |
| 20260505033949 | 16 | 177 | 0.0 | 3.2 | 0.00 | 0.00 | 0.00 | 81 | 1013.1 |
| 20260505033449 | 16 | 254 | 0.0 | 1.6 | 0.00 | 0.00 | 0.00 | 81 | 1013.2 |
| 20260505032447 | 16 | 254 | 0.0 | 1.6 | 0.00 | 0.00 | 0.00 | 80 | 1013.0 |
| 20260505031940 | 16 | 254 | 0.0 | 1.6 | 0.00 | 0.00 | 0.00 | 80 | 1013.0 |
| 20260505031444 | 16 | 256 | 0.0 | 1.6 | 0.00 | 0.00 | 0.00 | 80 | 1012.9 |
| 20260505030942 | 16 | 257 | 0.0 | 1.6 | 0.00 | 0.00 | 0.00 | 80 | 1013.0 |
| 20260505030438 | 16 | 257 | 0.0 | 1.6 | 0.00 | 0.00 | 0.00 | 80 | 1013.1 |
| 20260505025937 | 16 | 344 | 0.0 | 1.6 | 0.00 | 0.00 | 0.00 | 80 | 1013.0 |
| 20260505025437 | 16 | 344 | 0.0 | 1.6 | 0.00 | 0.00 | 0.00 | 80 | 1013.2 |
| 20260505024935 | 16 | 344 | 0.0 | 1.6 | 0.00 | 0.00 | 0.00 | 80 | 1013.0 |
| 20260505024433 | 16 | 346 | 0.0 | 0.0 | 0.00 | 0.00 | 0.00 | 80 | 1012.9 |
| 20260505023930 | 16 | 346 | 0.0 | 3.2 | 0.00 | 0.00 | 0.00 | 80 | 1013.0 |
| 20260505022931 | 16 | 347 | 0.0 | 1.6 | 0.00 | 0.00 | 0.00 | 80 | 1013.0 |
| 20260505022433 | 16 | 347 | 0.0 | 1.6 | 0.00 | 0.00 | 0.00 | 80 | 1012.9 |
| 20260505021437 | 16 | 347 | 0.0 | 1.6 | 0.00 | 0.00 | 0.00 | 79 | 1013.1 |
| 20260505020930 | 16 | 347 | 0.0 | 1.6 | 0.00 | 0.00 | 0.00 | 79 | 1013.1 |
| 20260505020442 | 16 | 347 | 0.0 | 3.2 | 0.00 | 0.00 | 0.00 | 79 | 1013.2 |
| 20260505015433 | 16 | 346 | 0.0 | 3.2 | 0.00 | 0.00 | 0.00 | 79 | 1013.1 |
| 20260505014930 | 16 | 347 | 0.0 | 3.2 | 0.00 | 0.00 | 0.00 | 79 | 1013.0 |
| 20260505013932 | 16 | 347 | 0.0 | 3.2 | 0.00 | 0.00 | 0.00 | 78 | 1013.2 |
| 20260505013431 | 16 | 347 | 0.0 | 1.6 | 0.00 | 0.00 | 0.00 | 78 | 1013.1 |
| 20260505012933 | 16 | 348 | 0.0 | 3.2 | 0.00 | 0.00 | 0.00 | 78 | 1013.1 |
| 20260505012432 | 16 | 348 | 0.0 | 3.2 | 0.00 | 0.00 | 0.00 | 78 | 1013.1 |
| 20260505012002 | 17 | 348 | 0.0 | 1.6 | 0.00 | 0.00 | 0.00 | 77 | 1013.1 |
| 20260505010937 | 17 | 348 | 0.0 | 3.2 | 0.00 | 0.00 | 0.00 | 76 | 1013.1 |
| 20260505010432 | 17 | 348 | 0.0 | 1.6 | 0.00 | 0.00 | 0.00 | 76 | 1013.1 |
| 20260505005942 | 17 | 348 | 0.0 | 1.6 | 0.00 | 0.00 | 0.00 | 76 | 1013.1 |
| 20260505005431 | 17 | 348 | 0.0 | 1.6 | 0.00 | 0.00 | 0.00 | 76 | 1013.1 |
| 20260505004433 | 17 | 348 | 0.0 | 1.6 | 0.00 | 0.00 | 0.00 | 75 | 1013.1 |
| 20260505003934 | 17 | 348 | 0.0 | 1.6 | 0.00 | 0.00 | 0.00 | 75 | 1013.0 |
| 20260505002931 | 17 | 348 | 0.0 | 1.6 | 0.00 | 0.00 | 0.00 | 74 | 1013.0 |
| 20260505002430 | 17 | 348 | 0.0 | 1.6 | 0.00 | 0.00 | 0.00 | 74 | 1013.1 |
| 20260505001430 | 17 | 348 | 0.0 | 1.6 | 0.00 | 0.00 | 0.00 | 73 | 1013.0 |
| 20260505000939 | 18 | 348 | 0.0 | 1.6 | 0.00 | 0.00 | 0.00 | 72 | 1013.0 |
| 20260504235934 | 18 | 340 | 0.0 | 1.6 | 0.00 | 0.00 | 0.00 | 71 | 1013.0 |
| 20260504235432 | 18 | 340 | 0.0 | 3.2 | 0.00 | 0.00 | 0.00 | 71 | 1012.9 |
| 20260504234938 | 18 | 340 | 0.0 | 3.2 | 0.00 | 0.00 | 0.00 | 70 | 1012.8 |
| 20260504233934 | 18 | 340 | 0.0 | 3.2 | 0.00 | 0.00 | 0.00 | 69 | 1012.6 |
| 20260504232931 | 19 | 340 | 0.0 | 3.2 | 0.00 | 0.00 | 0.00 | 68 | 1012.6 |
| 20260504232432 | 19 | 340 | 0.0 | 3.2 | 0.00 | 0.00 | 0.00 | 67 | 1012.6 |
| 20260504231931 | 19 | 340 | 0.0 | 3.2 | 0.00 | 0.00 | 0.00 | 67 | 1012.5 |
| 20260504231432 | 19 | 340 | 1.6 | 3.2 | 0.00 | 0.00 | 0.00 | 66 | 1012.5 |
| 20260504230931 | 19 | 339 | 0.0 | 3.2 | 0.00 | 0.00 | 0.00 | 65 | 1012.5 |
| 20260504230432 | 20 | 339 | 0.0 | 3.2 | 0.00 | 0.00 | 0.00 | 65 | 1012.5 |
| 20260504225929 | 20 | 339 | 0.0 | 3.2 | 0.00 | 0.00 | 0.00 | 64 | 1012.5 |
| 20260504225437 | 20 | 338 | 0.0 | 3.2 | 0.00 | 0.00 | 0.00 | 63 | 1012.5 |
| 20260504224934 | 20 | 336 | 1.6 | 3.2 | 0.00 | 0.00 | 0.00 | 63 | 1012.5 |
| 20260504224433 | 20 | 336 | 0.0 | 4.8 | 0.00 | 0.00 | 0.00 | 62 | 1012.3 |
| 20260504223930 | 20 | 336 | 1.6 | 4.8 | 0.00 | 0.00 | 0.00 | 62 | 1012.4 |
| 20260504223435 | 20 | 336 | 1.6 | 3.2 | 0.00 | 0.00 | 0.00 | 61 | 1012.3 |
| 20260504222934 | 21 | 331 | 1.6 | 3.2 | 0.00 | 0.00 | 0.00 | 60 | 1012.3 |
| 20260504222431 | 21 | 329 | 1.6 | 3.2 | 0.00 | 0.00 | 0.00 | 57 | 1012.3 |
| 20260504221424 | 21 | 355 | 1.6 | 3.2 | 0.00 | 0.00 | 0.00 | 58 | 1012.2 |
| 20260504220917 | 22 | 351 | 1.6 | 3.2 | 0.00 | 0.00 | 0.00 | 55 | 1012.2 |
| 20260504220418 | 23 | 351 | 1.6 | 4.8 | 0.00 | 0.00 | 0.00 | 51 | 1012.2 |
| 20260504215915 | 23 | 49 | 1.6 | 6.4 | 0.00 | 0.00 | 0.00 | 44 | 1012.2 |
| 20260504215422 | 23 | 161 | 0.0 | 6.4 | 0.00 | 0.00 | 0.00 | 42 | 1012.2 |
| 20260504214914 | 23 | 173 | 0.0 | 3.2 | 0.00 | 0.00 | 0.00 | 40 | 1012.3 |